Location: East Guldeford
(50.9500°N, 0.7500°E)
Time: 18:37:06
(UTC+00:00)

Cosmos 1943 Rocket - Pass Details

Date: 12 May 2021
Orbit: 813 x 842 km, 71.0° (Epoch: 16 June)

Event Time Altitude Azimuth Distance (km) Brightness Sun altitude
Exits shadow 23:35:54 18° 235° (SW) 1,959 3.8 -20.6°
Maximum altitude 23:40:00 52° 306° (NW) 1,025 2.8 -20.6°
Drops below altitude 10° 23:45:28 10° 23° (NNE) 2,442 5.5 -20.6°
Sets 23:47:59 0° 29° (NNE) 3,374 6.3 -20.7°
